Location: Castelbiague
(43.0361°N, 0.9246°E)
Time: 10:14:23
(UTC+00:00)

Cosmos 968 Rocket - Pass Details

Date: 17 June 2021
Orbit: 741 x 771 km, 74.0° (Epoch: 01 August)

Event Time Altitude Azimuth Distance (km) Brightness Sun altitude
Rises 21:43:50 0° 346° (NNW) 3,188 8.1 -16.8°
Reaches altitude 10° 21:46:21 10° 355° (N) 2,261 6.9 -17.0°
Maximum altitude 21:51:07 38° 63° (ENE) 1,132 4.3 -17.5°
Enters shadow 21:53:28 25° 113° (ESE) 1,492 4.6 -17.7°
